[[{"header":{"parameterUnit":"m.s-1","parameterCategory":1,"la1":30.2991,"la2":30.254,"lo1":-89.0895,"lo2":-89.0444,"dy":0.0017,"dx":0.0017,"nx":28,"ny":28,"refTime":"2025-09-07T03:00:00:Z","depth":0,"parameterNumber":2,"parameterNumberName":"U-component_of_WINDS"},"data":[0,0,0,0,0,0,0,0,0,0,0,0,0,0,0,0,0,0,0,0,0,0,0,0,0,0,0,0,0,0,0,0,0,0,0,0,0,0,0,0,0,0,0,0,0,0,0,0,0,0,0,0,0,0,0,0,0,0,-0.4498,-0.4497,0,-0.441,-0.4409,-0.4408,-0.4401,-0.4402,-0.4403,-0.4404,-0.4313,-0.4309,-0.4306,0,0,0,0,0,0,0,0,0,0,0,0,0,-0.4658,-0.4655,-0.4498,-0.4497,-0.4496,-0.441,-0.4409,-0.4408,-0.4401,-0.4402,-0.4403,-0.4404,-0.4314,-0.431,-0.4306,0,0,0,0,0,0,0,0,0,0,0,0,0,-0.4581,-0.4654,-0.4498,-0.4482,-0.448,-0.4411,-0.4409,-0.4408,-0.4401,-0.4402,-0.4404,-0.4405,-0.4315,-0.431,-0.4305,-0.4245,0,0,-0.429,-0.4288,0,0,0,0,0,0,0,0,-0.4586,-0.4575,-0.4486,-0.4483,-0.448,-0.4418,-0.4432,-0.4353,-0.44,-0.4431,-0.4404,-0.4406,-0.4346,-0.4339,-0.4319,-0.4241,-0.4237,-0.4289,-0.4286,-0.4284,-0.4283,0,0,0,0,0,0,0,-0.4591,-0.4579,-0.4463,-0.4484,-0.4481,-0.4479,-0.4469,-0.4417,-0.4381,-0.4428,-0.4428,-0.4417,-0.4345,-0.4324,-0.4317,-0.4236,-0.429,-0.4285,-0.4282,-0.428,-0.4104,-0.4102,0,0,0,0,0,0,-0.4599,-0.4583,-0.4466,-0.4461,-0.4538,-0.4475,-0.4464,-0.4437,-0.4382,-0.4375,-0.4416,-0.4417,-0.4332,-0.4323,-0.4314,-0.424,-0.4284,-0.428,-0.4277,-0.4106,-0.4104,-0.4102,0,0,0,0,0,0,-0.4603,-0.4589,-0.4469,-0.4522,-0.4506,-0.447,-0.4439,-0.4434,-0.4413,-0.4373,-0.4366,-0.4401,-0.4333,-0.4321,-0.4262,-0.4236,-0.4277,-0.4273,-0.4108,-0.4105,-0.4103,-0.4092,0,0,0,0,0,0,-0.4608,-0.459,-0.4568,-0.4521,-0.4504,-0.442,-0.4438,-0.4431,-0.4405,-0.4405,-0.4357,-0.4351,-0.4333,-0.427,-0.4258,-0.423,-0.4269,-0.411,-0.4107,-0.4104,-0.4094,-0.4089,-0.4085,0,0,0,0,0,-0.4613,-0.4568,-0.4567,-0.4552,-0.4475,-0.4419,-0.4408,-0.4389,-0.4403,-0.4379,-0.4353,-0.4352,-0.4242,-0.4264,-0.425,-0.4221,-0.4111,-0.4107,-0.4104,-0.4096,-0.409,-0.4085,0,0,0,0,0,0,-0.4611,-0.4561,-0.4559,-0.4498,-0.4462,-0.4418,-0.4387,-0.4384,-0.4343,-0.4346,-0.4324,-0.4313,-0.4255,-0.4232,-0.4258,-0.416,-0.4178,-0.4171,-0.4177,-0.4171,-0.4166,-0.4172,-0.4265,0,0,0,0,0,-0.4604,-0.4563,-0.4521,-0.4471,-0.4453,-0.4423,-0.4398,-0.4387,-0.4349,-0.4334,-0.4304,-0.4267,-0.4224,-0.4196,-0.4155,-0.4091,-0.408,-0.4064,-0.406,-0.4056,-0.405,-0.4014,-0.4006,-0.4089,-0.4089,-0.409,0,0,-0.4588,-0.4555,-0.4531,-0.447,-0.4441,-0.4399,-0.4411,-0.4366,-0.4334,-0.4327,-0.427,-0.4247,-0.4204,-0.4143,-0.4115,-0.4122,-0.4025,-0.4051,-0.4048,-0.4044,-0.401,-0.4002,-0.3995,-0.4087,-0.4087,-0.4088,0,0,-0.4536,-0.4508,-0.4463,-0.4434,-0.439,-0.4371,-0.436,-0.4315,-0.43,-0.4243,-0.4237,-0.4199,-0.4125,-0.4095,-0.407,-0.4007,-0.4004,-0.3994,-0.3969,-0.3935,-0.3928,-0.3922,-0.3899,-0.3891,-0.3989,-0.3989,-0.3989,0,-0.4521,-0.4458,-0.444,-0.4394,-0.4367,-0.436,-0.4313,-0.4286,-0.4231,-0.4212,-0.4222,-0.413,-0.4101,-0.4032,-0.4017,-0.3997,-0.3984,-0.3999,-0.3931,-0.3925,-0.3919,-0.3897,-0.3888,-0.3988,-0.3988,-0.3988,-0.3988,0,-0.4441,-0.4397,-0.4365,-0.4313,-0.4282,-0.4237,-0.4211,-0.4182,-0.4174,-0.4153,-0.4095,-0.406,-0.4011,-0.3994,-0.3985,-0.3924,-0.393,-0.3935,-0.3953,-0.391,-0.3889,-0.388,-0.3986,-0.3987,-0.3987,-0.3987,0,0,-0.4385,-0.4324,-0.4312,-0.4288,-0.424,-0.4205,-0.4159,-0.4111,-0.4087,-0.4049,-0.401,-0.3948,-0.3953,-0.3925,-0.3912,-0.3882,-0.3834,-0.3891,-0.389,-0.3881,-0.3764,-0.376,-0.375,-0.3833,-0.3831,-0.383,-0.3768,0,-0.4328,-0.4246,-0.4228,-0.4157,-0.4115,-0.4108,-0.4068,-0.4034,-0.4013,-0.3975,-0.3953,-0.3909,-0.3919,-0.3902,-0.3872,-0.3846,-0.381,-0.3851,-0.3795,-0.3793,-0.3805,-0.3739,-0.3734,-0.3677,-0.3759,-0.3758,-0.3757,0,-0.425,-0.4211,-0.4135,-0.4092,-0.4074,-0.4038,-0.3993,-0.3957,-0.3918,-0.3905,-0.3874,-0.3865,-0.3816,-0.3837,-0.3769,-0.3797,-0.3774,-0.3758,-0.3755,-0.3748,-0.3772,-0.373,-0.3659,-0.365,-0.3744,-0.3745,-0.3746,0,-0.4216,-0.4144,-0.409,-0.4069,-0.4018,-0.3993,-0.397,-0.3933,-0.3905,-0.3866,-0.3848,-0.3803,-0.3779,-0.3744,-0.3723,-0.374,-0.3657,-0.3676,-0.3645,-0.3645,-0.3627,-0.3628,-0.355,-0.3613,-0.3613,-0.3613,-0.3614,0,-0.4153,-0.4107,-0.4074,-0.404,-0.3988,-0.3968,-0.3918,-0.3895,-0.3862,-0.3824,-0.3815,-0.3779,-0.3754,-0.3715,-0.3698,-0.3645,-0.3634,-0.3622,-0.3618,-0.3622,-0.3624,-0.3606,-0.3609,-0.3611,-0.3612,-0.3612,-0.3612,0,-0.4105,-0.4081,-0.4022,-0.3978,-0.3966,-0.393,-0.3892,-0.3859,-0.3839,-0.3791,-0.3778,-0.3746,-0.3699,-0.3676,-0.3617,-0.3606,-0.3546,-0.3545,-0.3559,-0.3557,-0.3527,-0.353,-0.3434,-0.342,-0.3493,-0.3492,-0.3492,0,-0.4066,-0.4031,-0.3983,-0.3957,-0.3934,-0.3892,-0.3864,-0.3843,-0.3814,-0.3767,-0.374,-0.3693,-0.3654,-0.358,-0.3551,-0.3507,-0.3504,-0.3474,-0.3497,-0.3503,-0.3503,-0.3505,-0.3501,-0.3469,-0.3468,-0.3468,-0.3467,0,-0.4,-0.3989,-0.3949,-0.3905,-0.3872,-0.3836,-0.38,-0.3779,-0.3752,-0.372,-0.3673,-0.3643,-0.3583,-0.3537,-0.349,-0.3467,-0.3462,-0.346,-0.3451,-0.3454,-0.3464,-0.3458,-0.3547,-0.3462,-0.3463,-0.3463,-0.3463,-0.3464,-0.3955,-0.3923,-0.3884,-0.384,-0.3811,-0.3778,-0.3744,-0.372,-0.368,-0.363,-0.362,-0.357,-0.3532,-0.3469,-0.3444,-0.3404,-0.3411,-0.3397,-0.3393,-0.339,-0.3388,-0.3471,-0.3396,-0.3396,-0.3396,-0.3396,-0.3396,0,-0.3887,-0.3862,-0.3821,-0.3772,-0.3737,-0.3736,-0.3697,-0.3667,-0.3623,-0.3588,-0.355,-0.3495,-0.345,-0.3418,-0.3372,-0.3346,-0.3343,-0.3335,-0.3336,-0.3331,-0.3385,-0.3398,-0.3338,-0.3338,-0.3338,-0.3338,-0.3338,-0.3338,-0.3847,-0.3793,-0.3778,-0.3709,-0.3684,-0.3635,-0.3612,-0.3582,-0.3554,-0.3493,-0.3455,-0.3435,-0.3401,-0.3353,-0.3311,-0.3303,-0.3286,-0.3278,-0.327,-0.3321,-0.3327,-0.3333,-0.3345,-0.3275,-0.3275,-0.3219,-0.3218,-0.3218]},{"header":{"parameterUnit":"m.s-1","parameterCategory":1,"la1":30.2991,"la2":30.254,"lo1":-89.0895,"lo2":-89.0444,"dy":0.0017,"dx":0.0017,"nx":28,"ny":28,"refTime":"2025-09-07T03:00:00:Z","depth":0,"parameterNumber":3,"parameterNumberName":"V-component_of_WINDS"},"data":[0,0,0,0,0,0,0,0,0,0,0,0,0,0,0,0,0,0,0,0,0,0,0,0,0,0,0,0,0,0,0,0,0,0,0,0,0,0,0,0,0,0,0,0,0,0,0,0,0,0,0,0,0,0,0,0,0,0,1.055,1.055,0,1.0566,1.0566,1.0566,1.0515,1.0513,1.0511,1.051,1.0529,1.0531,1.0533,0,0,0,0,0,0,0,0,0,0,0,0,0,1.0477,1.0478,1.055,1.055,1.0551,1.0566,1.0566,1.0566,1.0515,1.0513,1.0511,1.0509,1.0529,1.0531,1.0533,0,0,0,0,0,0,0,0,0,0,0,0,0,1.0502,1.0479,1.055,1.0527,1.0525,1.0566,1.0566,1.0566,1.0515,1.0513,1.051,1.0508,1.0528,1.0531,1.0534,1.0599,0,0,1.0543,1.0544,0,0,0,0,0,0,0,0,1.0501,1.0505,1.053,1.0528,1.0526,1.0536,1.0547,1.0578,1.0516,1.0519,1.051,1.0507,1.0534,1.0536,1.0544,1.06,1.0601,1.0543,1.0545,1.0546,1.0547,0,0,0,0,0,0,0,1.0499,1.0504,1.0556,1.053,1.0528,1.0516,1.0517,1.0553,1.0539,1.0518,1.0515,1.0517,1.0532,1.0541,1.0544,1.0601,1.0543,1.0546,1.0547,1.0549,1.0709,1.0711,0,0,0,0,0,0,1.05,1.0503,1.0556,1.0557,1.0507,1.0519,1.052,1.0535,1.0539,1.0537,1.0519,1.0515,1.0537,1.0541,1.0545,1.062,1.0546,1.0549,1.0551,1.0707,1.071,1.0712,0,0,0,0,0,0,1.0499,1.0505,1.0555,1.0529,1.0534,1.0523,1.054,1.0537,1.0546,1.0539,1.0537,1.0531,1.0536,1.0541,1.0585,1.062,1.055,1.0553,1.0704,1.0708,1.0711,1.0773,0,0,0,0,0,0,1.0497,1.0505,1.053,1.053,1.0536,1.0596,1.0542,1.0539,1.0551,1.0545,1.055,1.0548,1.0534,1.0581,1.0588,1.0623,1.0555,1.0701,1.0705,1.071,1.0767,1.0778,1.0787,0,0,0,0,0,1.0494,1.0548,1.0532,1.0538,1.0567,1.0598,1.0601,1.0583,1.0554,1.0579,1.0574,1.0548,1.0615,1.0586,1.0594,1.063,1.0698,1.0704,1.0709,1.0763,1.0776,1.0787,0,0,0,0,0,0,1.0555,1.0548,1.0529,1.0584,1.0592,1.0589,1.062,1.0598,1.0615,1.0609,1.0586,1.0588,1.0636,1.0637,1.0605,1.0692,1.0652,1.0659,1.069,1.0702,1.0711,1.071,1.0558,0,0,0,0,0,1.0574,1.0599,1.0592,1.0642,1.0646,1.0632,1.0645,1.063,1.0637,1.0641,1.0639,1.0648,1.0671,1.0686,1.0707,1.0767,1.0766,1.0795,1.0805,1.0813,1.082,1.0849,1.0862,1.0731,1.0731,1.073,0,0,1.0616,1.0615,1.0632,1.0653,1.0657,1.0684,1.0635,1.0667,1.0686,1.0646,1.0687,1.0686,1.0694,1.0746,1.0769,1.0749,1.0856,1.082,1.0827,1.0829,1.0856,1.0869,1.088,1.0734,1.0734,1.0733,0,0,1.0704,1.0706,1.0746,1.075,1.0756,1.0746,1.0755,1.0755,1.0752,1.0793,1.0763,1.0786,1.0826,1.0832,1.0841,1.0927,1.0904,1.0935,1.0986,1.1015,1.1026,1.1035,1.1065,1.1076,1.0942,1.0942,1.0942,0,1.0755,1.0793,1.077,1.0802,1.0811,1.0774,1.0814,1.082,1.0833,1.084,1.0817,1.0864,1.0867,1.0919,1.094,1.0948,1.0958,1.0935,1.1026,1.1035,1.1043,1.1071,1.1082,1.0945,1.0945,1.0945,1.0944,0,1.0854,1.0881,1.0912,1.0923,1.0936,1.0973,1.0955,1.0971,1.0954,1.0947,1.0988,1.0989,1.1008,1.102,1.1005,1.1069,1.1056,1.103,1.0988,1.1059,1.1085,1.1096,1.0951,1.0949,1.0948,1.0947,0,0,1.0983,1.0978,1.099,1.0993,1.0995,1.1016,1.1049,1.1066,1.108,1.109,1.1117,1.115,1.1125,1.1134,1.1119,1.1145,1.1211,1.1115,1.1115,1.1132,1.128,1.13,1.1313,1.1195,1.1197,1.1199,1.1279,0,1.1069,1.1125,1.1104,1.1162,1.1185,1.1148,1.1177,1.1182,1.1175,1.1194,1.1187,1.121,1.1176,1.1181,1.1204,1.1198,1.1241,1.1192,1.122,1.1222,1.1219,1.1326,1.1348,1.1424,1.1289,1.1291,1.1292,0,1.1177,1.1188,1.1247,1.1242,1.1251,1.1278,1.129,1.1309,1.1313,1.1306,1.1315,1.1293,1.1325,1.1284,1.1327,1.1295,1.1305,1.1303,1.1305,1.1307,1.1261,1.1331,1.1448,1.1459,1.1308,1.1307,1.1306,0,1.1263,1.1293,1.1332,1.1336,1.1332,1.1351,1.135,1.1351,1.1362,1.1373,1.1379,1.1395,1.1403,1.1415,1.1398,1.137,1.1444,1.1401,1.1439,1.1439,1.1456,1.1456,1.1576,1.1464,1.1464,1.1463,1.1463,0,1.1361,1.1399,1.137,1.1394,1.1435,1.141,1.1451,1.1446,1.1447,1.1469,1.1439,1.146,1.1436,1.1456,1.1442,1.1479,1.1484,1.1479,1.1475,1.1481,1.1482,1.1488,1.1482,1.1466,1.1466,1.1465,1.1465,0,1.1465,1.1448,1.1487,1.1479,1.1477,1.1507,1.15,1.1522,1.1511,1.154,1.1545,1.1529,1.155,1.1534,1.1555,1.1546,1.1595,1.1584,1.1593,1.159,1.1628,1.1624,1.1756,1.1771,1.165,1.1651,1.1652,0,1.1529,1.1556,1.155,1.1561,1.1562,1.1581,1.1591,1.1567,1.1579,1.1583,1.1604,1.1621,1.1634,1.1669,1.166,1.1675,1.1664,1.1709,1.1666,1.1671,1.1663,1.1662,1.1664,1.1718,1.1719,1.172,1.1721,0,1.1643,1.1632,1.1646,1.1657,1.1669,1.1677,1.1683,1.1694,1.1669,1.1684,1.1703,1.1713,1.1733,1.175,1.1762,1.1761,1.1737,1.1735,1.1744,1.1751,1.1755,1.1752,1.1616,1.1732,1.1731,1.173,1.173,1.1729,1.1728,1.175,1.1747,1.1764,1.1765,1.177,1.1789,1.1779,1.1795,1.1808,1.1793,1.1817,1.1817,1.183,1.1832,1.185,1.1831,1.1845,1.1849,1.1852,1.1857,1.1752,1.1852,1.1852,1.1852,1.1851,1.1851,0,1.1839,1.1835,1.185,1.1857,1.187,1.1844,1.1848,1.1861,1.1881,1.1883,1.1895,1.1917,1.1933,1.1924,1.1938,1.1954,1.1943,1.1958,1.1957,1.1957,1.1874,1.1864,1.1967,1.1967,1.1967,1.1967,1.1967,1.1967,1.1899,1.1933,1.1922,1.1956,1.1952,1.1973,1.1977,1.1981,1.1982,1.2007,1.202,1.2013,1.201,1.2023,1.2036,1.2033,1.2039,1.2059,1.2052,1.1974,1.1963,1.1952,1.1942,1.206,1.206,1.2133,1.2133,1.2134]}]]